Location: Dumpton Point
(51.3500°N, 1.4433°E)
Time: 04:17:38
(UTC+00:00)

Altair - Pass Details

Date: 08 October 2022
Orbit: 1501 x 1682 km, 47.2° (Epoch: 04 December)

Event Time Altitude Azimuth Distance (km) Brightness Sun altitude
Rises 06:32:30 0° 265° (W) 4,802 9.5 3.2°
Reaches altitude 10° 06:35:34 10° 264° (W) 3,840 9.0 3.7°
Maximum altitude 06:45:20 71° 183° (S) 1,736 8.0 5.1°
Drops below altitude 10° 06:55:24 10° 103° (ESE) 3,941 12.5 6.6°
Sets 06:58:35 0° 101° (E) 4,933 12.5 7.1°
